Facebook

   
     
Pulvinar tempor cras amet ac turpis tristique tristique ... (read more) close

İNSECTA has 100516 registered users

Userlist

# Status Avatar Username Posts Karma Join date Last login Hits
1111 OFFLINE Adaum7edpap's Avatar Adaum7edpap 0 0 28 Şub 2017 16:47 28 Şub 2017 16:52 124
1112 OFFLINE ofocot's Avatar ofocot 0 0 28 Şub 2017 17:14 28 Şub 2017 17:14 136
1113 OFFLINE ydudewyf's Avatar ydudewyf 0 0 28 Şub 2017 20:27 28 Şub 2017 20:27 117
1114 OFFLINE egorivyz's Avatar egorivyz 0 0 28 Şub 2017 22:18 28 Şub 2017 22:18 141
1115 OFFLINE aweqiz's Avatar aweqiz 0 0 28 Şub 2017 22:49 28 Şub 2017 22:49 140
1116 OFFLINE yfufo's Avatar yfufo 0 0 28 Şub 2017 22:49 28 Şub 2017 22:52 129
1117 OFFLINE enyqys's Avatar enyqys 0 0 28 Şub 2017 23:02 28 Şub 2017 23:02 132
1118 OFFLINE uqomaf's Avatar uqomaf 0 0 28 Şub 2017 23:07 28 Şub 2017 23:07 128
1119 OFFLINE anogofu's Avatar anogofu 0 0 01 Mar 2017 01:23 01 Mar 2017 01:23 137
1120 OFFLINE elabycedy's Avatar elabycedy 0 0 01 Mar 2017 02:01 01 Mar 2017 02:01 125
1121 OFFLINE LadeElepe's Avatar LadeElepe 0 0 01 Mar 2017 10:19 17 Nis 2017 14:24 126
1122 OFFLINE Alfredbop's Avatar Alfredbop 0 0 01 Mar 2017 13:16 01 Mar 2017 13:17 123
1123 OFFLINE Relativityorillia22's Avatar Relativityorillia22 0 0 01 Mar 2017 14:16 01 Mar 2017 14:16 138
1124 OFFLINE attaixcync's Avatar attaixcync 0 0 01 Mar 2017 18:39 17 Nis 2017 14:40 130
1125 OFFLINE eromufe's Avatar eromufe 0 0 01 Mar 2017 20:35 01 Mar 2017 20:35 126
1126 OFFLINE lorrikemble827's Avatar lorrikemble827 0 0 01 Mar 2017 22:32 01 Mar 2017 22:32 123
1127 OFFLINE candy12d6604257's Avatar candy12d6604257 0 0 01 Mar 2017 22:32 01 Mar 2017 22:32 152
1128 OFFLINE winnieabe492123's Avatar winnieabe492123 0 0 01 Mar 2017 22:35 01 Mar 2017 22:35 150
1129 OFFLINE brodiedeen93588's Avatar brodiedeen93588 0 0 01 Mar 2017 22:47 01 Mar 2017 22:47 142
1130 OFFLINE stephanyogilvie's Avatar stephanyogilvie 0 0 01 Mar 2017 22:57 01 Mar 2017 22:57 133
1131 OFFLINE kiara443276931's Avatar kiara443276931 0 0 01 Mar 2017 23:08 01 Mar 2017 23:08 125
1132 OFFLINE genenixon72098's Avatar genenixon72098 0 0 01 Mar 2017 23:09 01 Mar 2017 23:09 125
1133 OFFLINE sherrylnarvaez's Avatar sherrylnarvaez 0 0 01 Mar 2017 23:13 01 Mar 2017 23:13 134
1134 OFFLINE LorrineKl's Avatar LorrineKl 0 0 02 Mar 2017 09:07 03 Nis 2017 01:24 115
1135 OFFLINE karmabordelon9's Avatar karmabordelon9 0 0 02 Mar 2017 09:40 02 Mar 2017 09:40 134
1136 OFFLINE denicehawthorne's Avatar denicehawthorne 0 0 02 Mar 2017 09:41 02 Mar 2017 09:41 130
1137 OFFLINE violaherrick794's Avatar violaherrick794 0 0 02 Mar 2017 09:43 02 Mar 2017 09:43 129
1138 OFFLINE michelleblackal's Avatar michelleblackal 0 0 02 Mar 2017 09:45 02 Mar 2017 09:45 130
1139 OFFLINE valentinfluhart's Avatar valentinfluhart 0 0 02 Mar 2017 09:47 02 Mar 2017 09:47 132
1140 OFFLINE pedroibarra7704's Avatar pedroibarra7704 0 0 02 Mar 2017 10:11 02 Mar 2017 10:11 131

Who Is Online

Total users online: 0 Members and 37 Guests Online
Legend:  Site Administrator Global Moderator Moderator Banned User Guest

Kunena Statistics

  • Toplum Üye: 100.5k
  • Son Üye elekhivr
  • Toplam Mesaj: 21
  • Toplam Konu: 14
  • Toplam Bölüm: 3
  • Toplam Kategori: 10
  • Bugün Açılan: 0
  • Dün Açılan: 0
  • Bugün Cevaplar: 0
  • Dün Cevaplar: 0

Custom HTML

Time to create page: 1.060 seconds

Copyright © 2013 İnsecta Haşere Kontrol Hizmetleri